Idabel, OK

3:20 AM CDT on March 26, 2017 (GMT -0500)
Idabel

Weather History for K4O4 - October, 2011

Change the Weather History Date:

Friday, October 7, 2011

  Actual Average (KPRX) Record (KPRX)
Temperature  
Mean Temperature 74 °F -  
Max Temperature 87 °F 75 °F 89 °F (2011)
Min Temperature 60 °F 55 °F 42 °F (2001)
Cooling Degree Days 8    
Growing Degree Days 24 (Base 50)    
Moisture  
Dew Point 52 °F    
Average Humidity 48    
Maximum Humidity 77    
Minimum Humidity 24    
Precipitation  
Precipitation 0.00 in - - ()
Sea Level Pressure  
Sea Level Pressure 30.09 in    
Wind  
Wind Speed 10 mph (ESE)    
Max Wind Speed 17 mph    
Max Gust Speed 25 mph    
Visibility 10 miles    
Events      
Averages and records for this station are not official NWS values.
T = Trace of Precipitation, MM = Missing Value Source: NWS Daily Summary

Daily Weather History Graph

Daily Weather History Graph

Search for Another Location

Airport or City:

Trip Planner

Search our weather history database for the weather conditions in past years. The results will help you decide how hot, cold, wet, or windy it might be!

Date:

Astronomy

Oct. 07, 2011 Rise Set
Actual Time 7:18 AM CDT 6:55 PM CDT
Civil Twilight 6:53 AM CDT 7:20 PM CDT
Nautical Twilight 6:24 AM CDT 7:49 PM CDT
Astronomical Twilight 5:55 AM CDT 8:18 PM CDT
Moon 4:30 PM CDT (10/7) 3:18 AM CDT (10/7)
Length of Visible Light 12h 27m
Length of Day
11h 37m
Waxing Gibbous, 83% of the Moon is Illuminated
Oct 7
Waxing Gibbous
Oct 11
Full
Oct 19
Last Quarter
Oct 26
New
Nov 2
First Quarter

Hourly Weather History & Observations

Time (CDT) Temp. Heat Index Dew Point Humidity Pressure Visibility Wind Dir Wind Speed Gust Speed Precip Events Conditions
12:15 AM 71.6 °F - 46.4 °F 41% 30.06 in 10.0 mi ESE 8.1 mph - N/A   Clear
12:35 AM 71.6 °F - 48.2 °F 43% 30.06 in 10.0 mi SE 10.4 mph - N/A   Clear
12:55 AM 71.6 °F - 48.2 °F 43% 30.06 in 10.0 mi SE 12.7 mph - N/A   Clear
1:15 AM 71.6 °F - 50.0 °F 46% 30.06 in 10.0 mi SE 10.4 mph - N/A   Clear
1:35 AM 71.6 °F - 50.0 °F 46% 30.07 in 10.0 mi SE 9.2 mph - N/A   Clear
1:55 AM 69.8 °F - 50.0 °F 49% 30.07 in 10.0 mi ESE 8.1 mph - N/A   Clear
2:15 AM 69.8 °F - 50.0 °F 49% 30.07 in 10.0 mi East 4.6 mph - N/A   Clear
2:35 AM 66.2 °F - 50.0 °F 56% 30.08 in 10.0 mi East 5.8 mph - N/A   Clear
3:15 AM 64.4 °F - 50.0 °F 59% 30.08 in 10.0 mi East 8.1 mph - N/A   Scattered Clouds
3:55 AM 64.4 °F - 50.0 °F 59% 30.09 in 10.0 mi East 6.9 mph - N/A   Clear
4:15 AM 64.4 °F - 50.0 °F 59% 30.09 in 10.0 mi East 6.9 mph - N/A   Clear
4:35 AM 64.4 °F - 51.8 °F 64% 30.09 in 10.0 mi ESE 8.1 mph - N/A   Clear
4:55 AM 62.6 °F - 51.8 °F 68% 30.09 in 10.0 mi ESE 8.1 mph - N/A   Clear
5:15 AM 62.6 °F - 51.8 °F 68% 30.10 in 10.0 mi East 8.1 mph - N/A   Clear
5:35 AM 62.6 °F - 51.8 °F 68% 30.10 in 10.0 mi East 8.1 mph - N/A   Clear
5:55 AM 62.6 °F - 51.8 °F 68% 30.10 in 10.0 mi East 8.1 mph - N/A   Clear
6:15 AM 62.6 °F - 51.8 °F 68% 30.11 in 10.0 mi East 6.9 mph - N/A   Clear
6:35 AM 62.6 °F - 51.8 °F 68% 30.11 in 10.0 mi East 6.9 mph - N/A   Clear
6:55 AM 60.8 °F - 51.8 °F 72% 30.12 in 10.0 mi East 6.9 mph - N/A   Clear
7:15 AM 60.8 °F - 51.8 °F 72% 30.12 in 10.0 mi East 6.9 mph - N/A   Clear
7:35 AM 60.8 °F - 53.6 °F 77% 30.12 in 10.0 mi East 6.9 mph - N/A   Clear
7:55 AM 60.8 °F - 53.6 °F 77% 30.13 in 10.0 mi East 6.9 mph - N/A   Clear
8:15 AM 62.6 °F - 53.6 °F 72% 30.13 in 10.0 mi East 5.8 mph - N/A   Clear
8:35 AM 66.2 °F - 55.4 °F 68% 30.14 in 10.0 mi ESE 9.2 mph - N/A   Clear
8:55 AM 68.0 °F - 55.4 °F 64% 30.14 in 10.0 mi SE 11.5 mph - N/A   Clear
9:15 AM 69.8 °F - 55.4 °F 60% 30.15 in 10.0 mi SE 15.0 mph 19.6 mph N/A   Clear
9:35 AM 71.6 °F - 55.4 °F 57% 30.15 in 10.0 mi SE 10.4 mph - N/A   Clear
9:55 AM 73.4 °F - 55.4 °F 53% 30.15 in 10.0 mi SSE 12.7 mph 19.6 mph N/A   Clear
10:15 AM 73.4 °F - 55.4 °F 53% 30.15 in 10.0 mi SSE 13.8 mph - N/A   Clear
10:35 AM 77.0 °F - 55.4 °F 47% 30.15 in 10.0 mi SE 12.7 mph 19.6 mph N/A   Clear
10:55 AM 77.0 °F - 55.4 °F 47% 30.15 in 10.0 mi SSE 16.1 mph 24.2 mph N/A   Clear
11:15 AM 78.8 °F - 53.6 °F 42% 30.15 in 10.0 mi SE 13.8 mph 18.4 mph N/A   Clear
11:35 AM 80.6 °F 80.3 °F 53.6 °F 39% 30.15 in 10.0 mi SE 15.0 mph 21.9 mph N/A   Clear
11:55 AM 80.6 °F - 51.8 °F 37% 30.14 in 10.0 mi SE 12.7 mph 19.6 mph N/A   Clear
12:15 PM 82.4 °F - 51.8 °F 35% 30.13 in 10.0 mi SE 16.1 mph - N/A   Clear
12:35 PM 82.4 °F - 51.8 °F 35% 30.12 in 10.0 mi SE 15.0 mph 19.6 mph N/A   Clear
1:15 PM 86.0 °F - 50.0 °F 29% 30.11 in 10.0 mi SSE 13.8 mph 23.0 mph N/A   Clear
1:35 PM 86.0 °F - 50.0 °F 29% 30.10 in 10.0 mi SE 12.7 mph 19.6 mph N/A   Clear
1:55 PM 86.0 °F - 50.0 °F 29% 30.09 in 10.0 mi ESE 17.3 mph 25.3 mph N/A   Clear
2:15 PM 86.0 °F - 48.2 °F 27% 30.08 in 10.0 mi SE 17.3 mph 20.7 mph N/A   Clear
2:35 PM 87.8 °F - 48.2 °F 25% 30.08 in 10.0 mi SE 16.1 mph 23.0 mph N/A   Clear
2:55 PM 87.8 °F - 46.4 °F 24% 30.07 in 10.0 mi ESE 10.4 mph 19.6 mph N/A   Clear
3:15 PM 87.8 °F - 50.0 °F 27% 30.06 in 10.0 mi SE 13.8 mph 21.9 mph N/A   Clear
3:35 PM 87.8 °F - 50.0 °F 27% 30.06 in 10.0 mi SE 12.7 mph 20.7 mph N/A   Clear
3:55 PM 87.8 °F - 50.0 °F 27% 30.06 in 10.0 mi ESE 9.2 mph 20.7 mph N/A   Clear
4:55 PM 87.8 °F - 50.0 °F 27% 30.05 in 10.0 mi SE 15.0 mph 21.9 mph N/A   Clear
5:15 PM 86.0 °F - 51.8 °F 31% 30.04 in 10.0 mi SSE 13.8 mph 19.6 mph N/A   Clear
5:35 PM 86.0 °F - 51.8 °F 31% 30.04 in 10.0 mi SE 12.7 mph 21.9 mph N/A   Clear
6:35 PM 82.4 °F - 50.0 °F 32% 30.04 in 10.0 mi SE 10.4 mph - N/A   Clear
7:15 PM 80.6 °F - 51.8 °F 37% 30.05 in 10.0 mi SE 8.1 mph - N/A   Clear
7:35 PM 78.8 °F - 51.8 °F 39% 30.05 in 10.0 mi SE 6.9 mph - N/A   Clear
7:55 PM 77.0 °F - 51.8 °F 41% 30.05 in 10.0 mi SE 5.8 mph - N/A   Clear
8:15 PM 77.0 °F - 51.8 °F 41% 30.06 in 10.0 mi SE 8.1 mph - N/A   Clear
8:35 PM 77.0 °F - 51.8 °F 41% 30.06 in 10.0 mi SE 6.9 mph - N/A   Clear
9:15 PM 73.4 °F - 53.6 °F 50% 30.07 in 10.0 mi ESE 6.9 mph - N/A   Clear
9:35 PM 73.4 °F - 51.8 °F 47% 30.07 in 10.0 mi ESE 8.1 mph - N/A   Clear
9:55 PM 73.4 °F - 51.8 °F 47% 30.08 in 10.0 mi ESE 5.8 mph - N/A   Clear
10:35 PM 71.6 °F - 51.8 °F 50% 30.09 in 10.0 mi ESE 8.1 mph - N/A   Clear
10:55 PM 71.6 °F - 51.8 °F 50% 30.09 in 10.0 mi ESE 8.1 mph - N/A   Clear
11:35 PM 71.6 °F - 50.0 °F 46% 30.10 in 10.0 mi ESE 9.2 mph - N/A   Clear
11:55 PM 71.6 °F - 50.0 °F 46% 30.10 in 10.0 mi SE 9.2 mph - N/A   Clear